This is the latest recevied weather packets stored in our database for station/object IZ1UQG-2. If no packets are shown the sender has not sent any weather packets the latest 10 day(s).
| Time | Temp. | Humidity | Pressure | Rain* | Wind** | Luminosity | Snow |
|---|---|---|---|---|---|---|---|
| 1778128684 | 9.44° C | 92% | 1011.5 hPa | 0 mm | - | 28 W/m² | - |
| 1778127844 | 9.44° C | 92% | 1011 hPa | 0 mm | - | 19 W/m² | - |
| 1778127665 | 9.44° C | 92% | 1011.1 hPa | 0 mm | - | 11 W/m² | - |
| 1778127365 | 9.44° C | 92% | 1010.9 hPa | 0 mm | - | 7 W/m² | - |
| 1778127064 | 9.44° C | 92% | 1011 hPa | 0 mm | - | 5 W/m² | - |
| 1778126824 | 9.44° C | 92% | 1010.9 hPa | 0 mm | - | 5 W/m² | - |
| 1778126705 | 9.44° C | 92% | 1010.9 hPa | 0 mm | - | 0 W/m² | - |
| 1778126524 | 9.44° C | 92% | 1010.8 hPa | 0 mm | - | 0 W/m² | - |
| 1778126344 | 9.44° C | 92% | 1010.9 hPa | 0 mm | - | 0 W/m² | - |
| 1778125504 | 9.44° C | 92% | 1010.7 hPa | 0 mm | - | 0 W/m² | - |
| 1778123944 | 9.44° C | 92% | 1010.8 hPa | 0 mm | - | 0 W/m² | - |
| 1778123644 | 10° C | 92% | 1010.8 hPa | 0 mm | - | 0 W/m² | - |
| 1778123405 | 10° C | 92% | 1010.8 hPa | 0 mm | - | 0 W/m² | - |
| 1778122924 | 10° C | 92% | 1010.7 hPa | 0 mm | - | 0 W/m² | - |
| 1778122625 | 10° C | 92% | 1010.8 hPa | 0 mm | - | 0 W/m² | - |
| 1778122215 | 10° C | 92% | 1010.7 hPa | 0 mm | - | 0 W/m² | - |
| 1778121304 | 10° C | 92% | 1010.7 hPa | 0 mm | - | 0 W/m² | - |
| 1778121004 | 10° C | 92% | 1010.7 hPa | 0 mm | - | 0 W/m² | - |
| 1778120944 | 10° C | 92% | 1010.7 hPa | 0 mm | - | 0 W/m² | - |
| 1778120764 | 10° C | 92% | 1010.7 hPa | 0 mm | - | 0 W/m² | - |
| 1778120704 | 10° C | 92% | 1010.7 hPa | 0 mm | - | 0 W/m² | - |
| 1778119985 | 10.56° C | 92% | 1010.6 hPa | 0 mm | - | 0 W/m² | - |
| 1778119864 | 10.56° C | 92% | 1010.6 hPa | 0 mm | - | 0 W/m² | - |
| 1778119804 | 10.56° C | 92% | 1010.7 hPa | 0 mm | - | 0 W/m² | - |
| 1778119444 | 10.56° C | 92% | 1010.7 hPa | 0 mm | - | 0 W/m² | - |
* Rain latest hour (hover to see other rain measurements)
** Current wind speed in m/s (hover to see current wind gust speed)